Starlink 30401

operational
NORAD ID: 57818 Int'l Des: 2023-138 Owner: SPXS Country: US Constellation: starlink
LEOCIRCULAR

Starlink 30401について

説明を読み込み中...

リアルタイム位置

3D地球を読み込み中...

次回通過

高度履歴

Altitude vs Time

uPlot chart will show altitude changes over time

軌道要素

1 57818U 23138L 25259.58337963 .00018976 00000-0 14466-2 0 9997
2 57818 43.0012 102.1157 0001417 239.9852 202.7677 15.01724979 5842
Epoch: Sep 16, 2025 • Age: 19 hours

現在のステータス

高度 564.9 km
速度 7.58 km/s
衛星直下点 39.73°N, 27.22°E
打ち上げ日 Sep 9, 2023
運用期間 2 years
タイプ internet

技術仕様

分類 Payload
質量 730.00 kg
乾燥質量 700.00 kg
総質量 730.00 kg
長さ 0.30 m
直径 4.10 m
スパン 29.00 m
形状 Box + pan
製造者 SPXS
バスタイプ Starlink V2M
フェーズステータス In Orbit
所有者/国 SPXS/US

大規模コンステレーション

Loading constellations...